Home > Weather > Upernavik > Past weeks

Flag for Greenland Past Weather in Upernavik, Greenland — Yesterday and Last 2 Weeks

Now
41 °F

Quite cool.


Feels Like: 38 °F
Forecast: 43 / 46 °F
Wind: 5 mph from Southeast

Location: Edderfugle Oeer

Current Time: Aug 26, 2016 at 5:09:33 AM

Latest Report: Aug 26, 2016 at 4:00 AM


Visibility: N/A

Pressure: 29.90 "Hg

Humidity: 94%

Dew Point: 40 °F

Location of UpernavikLocation

Past Weather in Upernavik — Graph

°F

Upernavik Temperature Yesterday

Maximum temperature yesterday: 45 °F (at 2:00 AM)
Minimum temperature yesterday: 43 °F (at 12:00 AM)
Average temperature yesterday: 43 °F

High & Low Weather Summary for the Past Weeks

 TemperatureHumidityPressure
High47 °F (Aug 11, 5:00 PM)99% (Aug 19, 11:00 AM)30.10 "Hg (Aug 19, 11:00 AM)
Low40 °F (Aug 15, 4:00 AM)52% (Aug 11, 10:00 AM)29.63 "Hg (Aug 15, 6:00 AM)
Average42 °F83%29.83 "Hg
* Reported Aug 11 3:00 AM — Aug 26 3:00 AM, Upernavik, Weather by CustomWeather, © 2016

Note: Actual official high and low records may vary slightly from our data, if they occured in-between our weather recording intervals... More about our weather records

Advertising

Upernavik Weather History for the Previous 24 Hours

Scroll right to see more
 ConditionsComfort  
Time TempWeatherWind HumidityBarometerVisibility
3:00 AM
Fri, Aug 26
43 °FQuite cool.6 mph91%29.90 "HgN/A
2:00 AM43 °FQuite cool.6 mph94%29.90 "HgN/A
1:00 AM43 °FQuite cool.7 mph94%29.89 "HgN/A
12:00 AM43 °FQuite cool.9 mph94%29.88 "HgN/A
11:00 PM
Thu, Aug 25
44 °FQuite cool.12 mph92%29.88 "HgN/A
10:00 PM43 °FQuite cool.14 mph94%29.87 "HgN/A
8:00 PM43 °FQuite cool.15 mph91%29.86 "HgN/A
7:00 PM43 °FQuite cool.21 mph91%29.85 "HgN/A
6:00 PM44 °FQuite cool.23 mph86%29.85 "HgN/A
5:00 PM45 °FQuite cool.23 mph86%29.85 "HgN/A
4:00 PM44 °FQuite cool.20 mph88%29.85 "HgN/A
3:00 PM44 °FQuite cool.20 mph88%29.85 "HgN/A
2:00 PM44 °FQuite cool.20 mph88%29.85 "HgN/A
1:00 PM44 °FQuite cool.18 mph91%29.85 "HgN/A
12:00 PM44 °FQuite cool.15 mph91%29.86 "HgN/A
11:00 AM44 °FQuite cool.12 mph89%29.88 "HgN/A
10:00 AM43 °FQuite cool.14 mph93%29.89 "HgN/A
9:00 AM43 °FQuite cool.15 mph94%29.90 "HgN/A
8:00 AM43 °FQuite cool.9 mph95%29.91 "HgN/A
7:00 AM43 °FQuite cool.10 mph92%29.92 "HgN/A
6:00 AM43 °FQuite cool.10 mph90%29.92 "HgN/A
5:00 AM43 °FQuite cool.7 mph91%29.93 "HgN/A
Weather by CustomWeather, © 2016

See weather overviewHow to use our weather pages